{"data":{"norad_id":63295,"epoch":"2026-05-25T04:45:19.327968Z","epoch_age_seconds":48015,"freshness":"FRESH","line1":"1 63295U 25055E   26145.19814037  .00008823  00000+0  45812-3 0  9996","line2":"2 63295  97.6474 284.7130 0013286 209.0233 151.0262 15.16279804 65526","mean_motion":15.16279804,"eccentricity":0.0013286,"inclination_deg":97.6474,"raan_deg":284.713,"arg_perigee_deg":209.0233,"mean_anomaly_deg":151.0262,"bstar":0.00045812,"rev_number":6552,"period_min":94.969279166103,"perigee_km":507.93491124772,"apogee_km":526.25692415664,"semimajor_km":6895.2329177022,"source":"CELESTRAK","updated_at":"2026-05-25T13:38:03.646295Z"}}